Content
SEND FEEDBACK

Daily
Averages
Monthly
Summary
United States of America

WILMINGTON, NORTH CAROLINA


Home > North America > United States > North Carolina
Elevation: 72 feet     Latitude: 34 16N     Longitude: 077 54W

WEATHER
 
SELECT A DAY
Number of Records: 211,656;   Date Range: 1/1/95 - 9/29/14
 
SHARE

PRINT THIS DATA

[ ← Previous Day ]
WEATHER ALMANAC - FEBRUARY 17, 2014
[ Next Day → ]
[ °C ]   °F
Weather ElementAverageHighLow
Temperature41.1 °F48 °F (11:53 am)33.1 °F (6:53 am)
Dewpoint28.9 °F33.1 °F (2:53 am)25 °F (6:53 am)
Humidity62.8 %86 % (2:53 am)44 % (11:53 am)
Barometer30.29 in30.37 in (10:53 am)30.16 in (1:53 am)
Wind Speed9.3 mph15 mph (9:53 am)
Weather ElementAverage
Visibility9.9 mi
Wind DirectionENE (59.6 °)

Weather ElementTotal
Precipitation---
Heating Degree Days24.5 (Base 65)
Averaged from 25 records on February 17, 2014
WEATHER CONDITIONS BREAKOUT
WIND DIRECTION BREAKOUT
WEATHER BY HOUR - FEBRUARY 17, 2014
[ °C ]   °F
Local TimeTemperatureDewpointHumidityBarometerVisibilityWind DirectionWind SpeedGust SpeedPrecipitationEventsConditions
1:53 AM35.1 °F30.9 °F85 %30.16 in8.0 miCalmClear
2:53 AM37.0 °F33.1 °F86 %30.20 in10.0 miCalmClear
3:53 AM36.0 °F30.0 °F79 %30.21 in10.0 miNE (40°)10.4 mphClear
4:53 AM35.1 °F27.0 °F72 %30.24 in10.0 miNE (40°)6.9 mphClear
5:53 AM35.1 °F27.0 °F72 %30.26 in10.0 miNE (40°)8.1 mphClear
6:53 AM33.1 °F25.0 °F72 %30.28 in10.0 miNE (40°)6.9 mphClear
7:53 AM37.0 °F28.0 °F70 %30.31 in10.0 miNE (40°)10.4 mphClear
8:53 AM41.0 °F28.9 °F62 %30.35 in10.0 miNE (40°)11.5 mphClear
9:53 AM44.1 °F28.0 °F53 %30.36 in10.0 miNNE (30°)15.0 mphClear
10:53 AM46.0 °F27.0 °F47 %30.37 in10.0 miNNE (30°)8.1 mphClear
11:53 AM48.0 °F27.0 °F44 %30.35 in10.0 miEast (100°)11.5 mphClear
12:53 PM46.0 °F28.9 °F51 %30.33 in10.0 miEast (100°)11.5 mphClear
1:53 PM46.9 °F28.9 °F50 %30.32 in10.0 miEast (90°)11.5 mphClear
2:53 PM46.0 °F28.9 °F51 %30.31 in10.0 miEast (90°)12.7 mphClear
3:53 PM45.0 °F28.0 °F52 %30.32 in10.0 miEast (80°)15.0 mphClear
4:53 PM44.1 °F30.0 °F58 %30.30 in10.0 miEast (90°)12.7 mphClear
5:53 PM43.0 °F30.0 °F60 %30.29 in10.0 miEast (80°)11.5 mphPartly Cloudy
6:05 PM43.0 °F30.0 °F60 %30.30 in10.0 miENE (70°)11.5 mphMostly Cloudy
6:53 PM43.0 °F30.0 °F60 %30.30 in10.0 miEast (80°)11.5 mphOvercast
7:53 PM43.0 °F30.9 °F62 %30.29 in10.0 miENE (70°)9.2 mphOvercast
8:53 PM42.1 °F30.0 °F62 %30.30 in10.0 miENE (60°)10.4 mphOvercast
9:53 PM41.0 °F28.9 °F62 %30.30 in10.0 miNNE (30°)8.1 mphOvercast
10:33 PM39.0 °F28.0 °F65 %30.28 in10.0 miENE (70°)5.8 mphScattered Clouds
10:53 PM39.0 °F28.0 °F65 %30.28 in10.0 miENE (60°)5.8 mphClear
11:53 PM37.9 °F28.9 °F70 %30.21 in10.0 miESE (120°)5.8 mphClear
Hourly data recorded from KILM, located miles away from Wilmington, North Carolina







STORIES FROM OUR PARTNERS